Retour au catalogue

COSMOS 1275 DEB

ActifPO
NORAD 12745·DEBRIS·🇷🇺 Russia

Lancé Jun 4, 1981 depuis Plesetsk Cosmodrome

Loading…

Prochains Passages (prochaines 24 heures)

TLE

FraisSource: Space-Track

Époque: Sep 14, 2026, 10:24 UTC

1 12745U 81053CN  26257.43357444  .00000343  00000-0  25455-3 0  9996
2 12745  83.1354  63.7556 0046976  38.0248 351.2670 13.91847072271493

Suivez COSMOS 1275 DEB en temps réel avec AllMySat

Download on the App Store